[[{"header":{"parameterUnit":"m.s-1","parameterCategory":1,"la1":30.2991,"la2":30.254,"lo1":-89.0895,"lo2":-89.0444,"dy":0.0017,"dx":0.0017,"nx":28,"ny":28,"refTime":"2024-03-13T21:00:00:Z","depth":0,"parameterNumber":2,"parameterNumberName":"U-component_of_WINDS"},"data":[0,0,0,0,0,0,0,0,0,0,0,0,0,0,0,0,0,0,0,0,0,0,0,0,0,0,0,0,0,0,0,0,0,0,0,0,0,0,0,0,0,0,0,0,0,0,0,0,0,0,0,0,0,0,0,0,0,0,-2.6127,-2.6127,0,-2.6153,-2.6153,-2.6153,-2.6109,-2.6107,-2.6106,-2.6105,-2.6132,-2.6134,-2.6136,0,0,0,0,0,0,0,0,0,0,0,0,0,-2.6041,-2.6043,-2.6127,-2.6127,-2.6128,-2.6153,-2.6153,-2.6153,-2.6109,-2.6107,-2.6106,-2.6104,-2.6131,-2.6134,-2.6136,0,0,0,0,0,0,0,0,0,0,0,0,0,-2.6074,-2.6044,-2.6127,-2.6109,-2.6107,-2.6153,-2.6153,-2.6153,-2.611,-2.6107,-2.6105,-2.6103,-2.6131,-2.6134,-2.6137,-2.6202,0,0,-2.6147,-2.6148,0,0,0,0,0,0,0,0,-2.6072,-2.6077,-2.6111,-2.611,-2.6109,-2.6125,-2.6133,-2.617,-2.611,-2.6109,-2.6104,-2.6102,-2.6132,-2.6135,-2.6144,-2.6203,-2.6204,-2.6147,-2.6149,-2.615,-2.6151,0,0,0,0,0,0,0,-2.607,-2.6076,-2.6137,-2.6112,-2.611,-2.61,-2.6102,-2.614,-2.6133,-2.6109,-2.6106,-2.6109,-2.6131,-2.6142,-2.6145,-2.6205,-2.6147,-2.615,-2.6152,-2.6153,-2.6318,-2.632,0,0,0,0,0,0,-2.607,-2.6074,-2.6136,-2.6138,-2.6084,-2.6103,-2.6105,-2.6122,-2.6132,-2.6131,-2.6111,-2.6107,-2.6137,-2.6141,-2.6146,-2.6222,-2.615,-2.6153,-2.6155,-2.6315,-2.6318,-2.6321,0,0,0,0,0,0,-2.6068,-2.6076,-2.6135,-2.6105,-2.6112,-2.6107,-2.6126,-2.6124,-2.6135,-2.6134,-2.6132,-2.6123,-2.6136,-2.6141,-2.6188,-2.6222,-2.6155,-2.6158,-2.6312,-2.6316,-2.6319,-2.6376,0,0,0,0,0,0,-2.6066,-2.6075,-2.61,-2.6106,-2.6114,-2.6177,-2.6128,-2.6126,-2.614,-2.6135,-2.6145,-2.6144,-2.6134,-2.6183,-2.6191,-2.6226,-2.616,-2.6309,-2.6314,-2.6318,-2.6371,-2.6381,-2.6389,0,0,0,0,0,-2.6063,-2.6115,-2.6101,-2.6109,-2.6144,-2.6179,-2.6184,-2.617,-2.6143,-2.6168,-2.6167,-2.6144,-2.6218,-2.6189,-2.6197,-2.6233,-2.6307,-2.6313,-2.6318,-2.6366,-2.6379,-2.6389,0,0,0,0,0,0,-2.6113,-2.6115,-2.61,-2.6156,-2.6167,-2.6172,-2.6202,-2.6184,-2.6204,-2.6198,-2.6182,-2.6184,-2.6235,-2.6238,-2.6206,-2.6296,-2.6258,-2.6265,-2.6292,-2.6303,-2.6313,-2.6311,-2.6163,0,0,0,0,0,-2.613,-2.6158,-2.6159,-2.6208,-2.6214,-2.6208,-2.6222,-2.6211,-2.6223,-2.6228,-2.6231,-2.6243,-2.6269,-2.6287,-2.631,-2.6371,-2.6373,-2.64,-2.6409,-2.6417,-2.6424,-2.6456,-2.6468,-2.6339,-2.6339,-2.6339,0,0,-2.6167,-2.6171,-2.619,-2.6218,-2.6226,-2.6256,-2.6212,-2.6245,-2.6267,-2.6233,-2.6277,-2.628,-2.6293,-2.6347,-2.6371,-2.6352,-2.646,-2.6424,-2.643,-2.6433,-2.6463,-2.6475,-2.6486,-2.6343,-2.6342,-2.6341,0,0,-2.6248,-2.6254,-2.6296,-2.6304,-2.6317,-2.6312,-2.6322,-2.6329,-2.6329,-2.6373,-2.6348,-2.6374,-2.6419,-2.643,-2.6441,-2.6526,-2.6506,-2.6535,-2.6584,-2.6616,-2.6626,-2.6635,-2.6665,-2.6676,-2.6541,-2.6541,-2.6542,0,-2.6292,-2.6335,-2.6319,-2.6354,-2.6367,-2.6337,-2.6379,-2.6389,-2.6409,-2.6419,-2.6397,-2.6452,-2.6459,-2.6515,-2.6536,-2.6546,-2.6557,-2.6533,-2.6625,-2.6634,-2.6642,-2.6671,-2.6683,-2.6545,-2.6544,-2.6544,-2.6544,0,-2.6388,-2.6418,-2.645,-2.647,-2.6486,-2.6525,-2.6516,-2.6535,-2.6522,-2.652,-2.6565,-2.6572,-2.6597,-2.6609,-2.6598,-2.6664,-2.6652,-2.6628,-2.6589,-2.6658,-2.6685,-2.6696,-2.655,-2.6548,-2.6547,-2.6547,0,0,-2.6501,-2.6511,-2.6523,-2.6532,-2.6543,-2.6567,-2.6604,-2.6628,-2.6644,-2.6659,-2.669,-2.6729,-2.6707,-2.672,-2.6709,-2.6737,-2.6805,-2.671,-2.671,-2.6727,-2.6878,-2.6896,-2.6909,-2.6791,-2.6793,-2.6795,-2.6877,0,-2.6582,-2.6645,-2.6633,-2.6695,-2.6723,-2.6695,-2.6727,-2.6738,-2.6737,-2.6761,-2.676,-2.6788,-2.6757,-2.6764,-2.6791,-2.6791,-2.6835,-2.6785,-2.682,-2.6822,-2.6817,-2.6923,-2.6942,-2.7019,-2.6888,-2.6889,-2.6891,0,-2.6684,-2.6703,-2.6768,-2.6775,-2.6786,-2.6815,-2.6836,-2.6859,-2.6871,-2.6868,-2.6883,-2.6867,-2.6904,-2.6865,-2.6916,-2.6883,-2.6896,-2.6899,-2.6901,-2.6904,-2.686,-2.6928,-2.7043,-2.7055,-2.6907,-2.6906,-2.6904,0,-2.676,-2.6801,-2.6845,-2.6853,-2.6863,-2.6884,-2.6889,-2.6899,-2.6914,-2.6932,-2.6942,-2.6965,-2.6977,-2.6995,-2.6986,-2.6958,-2.7039,-2.6999,-2.7038,-2.7039,-2.7056,-2.7055,-2.7175,-2.7066,-2.7066,-2.7065,-2.7065,0,-2.6852,-2.6893,-2.6879,-2.6907,-2.6952,-2.6937,-2.6982,-2.6984,-2.6993,-2.702,-2.6998,-2.7024,-2.701,-2.7036,-2.7029,-2.7072,-2.7078,-2.7077,-2.7075,-2.7079,-2.7079,-2.7088,-2.7082,-2.7069,-2.7068,-2.7067,-2.7067,0,-2.6944,-2.6937,-2.6983,-2.6988,-2.699,-2.7023,-2.7028,-2.7053,-2.705,-2.7085,-2.7093,-2.7089,-2.7117,-2.711,-2.7141,-2.7137,-2.7192,-2.7183,-2.7188,-2.7185,-2.7225,-2.7221,-2.7354,-2.737,-2.7251,-2.7252,-2.7253,0,-2.7003,-2.7033,-2.7042,-2.7058,-2.7065,-2.7091,-2.7107,-2.7093,-2.711,-2.7126,-2.715,-2.7177,-2.7197,-2.7245,-2.7245,-2.7269,-2.726,-2.7305,-2.7263,-2.7267,-2.726,-2.7259,-2.7262,-2.7313,-2.7314,-2.7315,-2.7316,0,-2.7108,-2.7103,-2.7125,-2.7146,-2.7165,-2.7181,-2.7196,-2.7211,-2.7198,-2.7219,-2.7247,-2.7263,-2.7295,-2.7322,-2.7344,-2.735,-2.7332,-2.7329,-2.734,-2.7344,-2.7346,-2.7345,-2.721,-2.7326,-2.7325,-2.7325,-2.7324,-2.7324,-2.7185,-2.7211,-2.7221,-2.7246,-2.7256,-2.727,-2.7294,-2.7294,-2.7317,-2.7342,-2.7333,-2.7366,-2.7377,-2.7405,-2.7413,-2.7439,-2.7422,-2.7437,-2.7441,-2.7445,-2.745,-2.7342,-2.7443,-2.7443,-2.7443,-2.7443,-2.7442,0,-2.7289,-2.7293,-2.7317,-2.7338,-2.7358,-2.7338,-2.7353,-2.7372,-2.7401,-2.7413,-2.7434,-2.7467,-2.7493,-2.7495,-2.7519,-2.754,-2.7532,-2.7547,-2.7545,-2.7547,-2.7464,-2.7452,-2.7553,-2.7553,-2.7553,-2.7553,-2.7553,-2.7553,-2.7345,-2.7388,-2.7384,-2.7431,-2.7436,-2.7468,-2.7478,-2.7491,-2.75,-2.7538,-2.7559,-2.756,-2.7568,-2.7593,-2.7616,-2.7616,-2.7626,-2.7644,-2.7641,-2.7564,-2.7553,-2.7542,-2.7531,-2.7647,-2.7647,-2.7722,-2.7723,-2.7723]},{"header":{"parameterUnit":"m.s-1","parameterCategory":1,"la1":30.2991,"la2":30.254,"lo1":-89.0895,"lo2":-89.0444,"dy":0.0017,"dx":0.0017,"nx":28,"ny":28,"refTime":"2024-03-13T21:00:00:Z","depth":0,"parameterNumber":3,"parameterNumberName":"V-component_of_WINDS"},"data":[0,0,0,0,0,0,0,0,0,0,0,0,0,0,0,0,0,0,0,0,0,0,0,0,0,0,0,0,0,0,0,0,0,0,0,0,0,0,0,0,0,0,0,0,0,0,0,0,0,0,0,0,0,0,0,0,0,0,0.5541,0.5541,0,0.553,0.553,0.553,0.5517,0.5517,0.5517,0.5517,0.5506,0.5506,0.5506,0,0,0,0,0,0,0,0,0,0,0,0,0,0.5554,0.5554,0.5541,0.5541,0.5541,0.553,0.553,0.553,0.5517,0.5517,0.5517,0.5517,0.5506,0.5506,0.5506,0,0,0,0,0,0,0,0,0,0,0,0,0,0.5547,0.5554,0.5541,0.5533,0.5533,0.553,0.553,0.553,0.5517,0.5517,0.5517,0.5516,0.5506,0.5506,0.5506,0.551,0,0,0.5505,0.5505,0,0,0,0,0,0,0,0,0.5547,0.5546,0.5535,0.5534,0.5533,0.5525,0.5531,0.5523,0.5517,0.5523,0.5517,0.5516,0.5513,0.5512,0.551,0.551,0.5509,0.5505,0.5505,0.5505,0.5505,0,0,0,0,0,0,0,0.5548,0.5546,0.5537,0.5535,0.5533,0.5531,0.553,0.5529,0.552,0.5523,0.5522,0.552,0.5512,0.5511,0.551,0.5509,0.5505,0.5505,0.5505,0.5505,0.5515,0.5515,0,0,0,0,0,0,0.5549,0.5547,0.5537,0.5536,0.5539,0.5531,0.553,0.5528,0.5519,0.5518,0.5521,0.552,0.5511,0.551,0.551,0.5516,0.5505,0.5505,0.5505,0.5514,0.5515,0.5515,0,0,0,0,0,0,0.5549,0.5548,0.5538,0.5541,0.554,0.5531,0.5529,0.5528,0.5526,0.5518,0.5516,0.5521,0.5511,0.551,0.5511,0.5516,0.5505,0.5505,0.5514,0.5515,0.5515,0.5528,0,0,0,0,0,0,0.555,0.5548,0.5549,0.5542,0.554,0.5538,0.5529,0.5528,0.5526,0.5525,0.5518,0.5516,0.551,0.5511,0.5511,0.5515,0.5505,0.5514,0.5514,0.5515,0.5527,0.5529,0.5531,0,0,0,0,0,0.555,0.5553,0.5549,0.5548,0.5541,0.5538,0.5537,0.553,0.5526,0.5528,0.5523,0.5517,0.5515,0.5511,0.5511,0.5515,0.5513,0.5514,0.5515,0.5527,0.5529,0.5531,0,0,0,0,0,0,0.5561,0.5552,0.5548,0.5548,0.5544,0.5536,0.5538,0.5533,0.553,0.5529,0.5521,0.5519,0.5522,0.5518,0.5515,0.5521,0.5513,0.5514,0.5523,0.5525,0.5526,0.5527,0.5505,0,0,0,0,0,0.5564,0.5562,0.5554,0.5555,0.5554,0.5546,0.5545,0.554,0.5536,0.5534,0.5529,0.5526,0.5525,0.5525,0.5523,0.5527,0.5526,0.553,0.5532,0.5533,0.5534,0.5538,0.554,0.5518,0.5518,0.5518,0,0,0.5569,0.5564,0.5563,0.5558,0.5554,0.5554,0.5545,0.5544,0.5544,0.5534,0.5535,0.5532,0.5528,0.5531,0.5532,0.5528,0.554,0.5534,0.5535,0.5535,0.5539,0.5541,0.5543,0.5518,0.5518,0.5518,0,0,0.5578,0.5573,0.5574,0.5572,0.5567,0.5562,0.5562,0.5556,0.5553,0.5554,0.5547,0.5548,0.5546,0.5544,0.5542,0.5554,0.5549,0.5553,0.5562,0.5566,0.5568,0.557,0.5575,0.5577,0.5554,0.5554,0.5554,0,0.5585,0.5583,0.5576,0.5576,0.5575,0.5566,0.5569,0.5566,0.5561,0.5561,0.5557,0.5556,0.5552,0.5556,0.5559,0.5557,0.5559,0.5554,0.5568,0.557,0.5571,0.5577,0.5579,0.5555,0.5555,0.5555,0.5555,0,0.5593,0.5592,0.5594,0.559,0.5589,0.559,0.5584,0.5584,0.558,0.5576,0.5579,0.5574,0.5573,0.5573,0.5569,0.5577,0.5575,0.557,0.5563,0.5574,0.5579,0.5581,0.5556,0.5556,0.5556,0.5555,0,0,0.5607,0.5601,0.5602,0.5601,0.5596,0.5596,0.5598,0.5596,0.5597,0.5595,0.5597,0.5597,0.5593,0.5591,0.5587,0.559,0.5602,0.5585,0.5585,0.5589,0.5613,0.5618,0.562,0.5598,0.5599,0.5599,0.5614,0,0.5616,0.5619,0.5613,0.5617,0.5618,0.5611,0.5613,0.5611,0.5608,0.5609,0.5606,0.5606,0.56,0.5599,0.5603,0.56,0.5607,0.5598,0.5602,0.5602,0.5604,0.5623,0.5627,0.5642,0.5616,0.5616,0.5616,0,0.5627,0.5626,0.563,0.5627,0.5627,0.5629,0.5629,0.5629,0.5628,0.5625,0.5625,0.562,0.5624,0.5617,0.5622,0.5617,0.5618,0.5617,0.5618,0.5618,0.5611,0.5625,0.5646,0.5649,0.5619,0.5619,0.5619,0,0.5639,0.5638,0.5641,0.5641,0.5637,0.5639,0.5637,0.5635,0.5636,0.5636,0.5637,0.5637,0.5638,0.5639,0.5635,0.563,0.5642,0.5634,0.5641,0.5642,0.5644,0.5644,0.5667,0.5643,0.5643,0.5643,0.5643,0,0.5649,0.5653,0.5647,0.5649,0.5653,0.5648,0.5653,0.5651,0.565,0.5652,0.5646,0.5649,0.5643,0.5646,0.5643,0.5649,0.5649,0.5649,0.5648,0.565,0.565,0.5651,0.565,0.5644,0.5644,0.5644,0.5644,0,0.5663,0.5659,0.5662,0.5659,0.5659,0.5662,0.566,0.5663,0.5661,0.5664,0.5665,0.5661,0.5664,0.5661,0.5663,0.5661,0.567,0.5668,0.5671,0.5671,0.5679,0.5679,0.5704,0.5708,0.5681,0.5681,0.5681,0,0.567,0.5673,0.5671,0.5673,0.5672,0.5674,0.5675,0.567,0.5672,0.5672,0.5675,0.5678,0.568,0.5685,0.5684,0.5686,0.5684,0.5693,0.5685,0.5687,0.5687,0.5687,0.5688,0.5695,0.5695,0.5695,0.5696,0,0.5685,0.5683,0.5684,0.5686,0.5688,0.5689,0.5689,0.5691,0.5686,0.5689,0.5692,0.5694,0.5698,0.5701,0.5704,0.5704,0.57,0.5698,0.5701,0.5703,0.5705,0.5706,0.5677,0.5698,0.5698,0.5697,0.5697,0.5697,0.5696,0.5699,0.5699,0.5702,0.5702,0.5703,0.5706,0.5705,0.5708,0.5711,0.5708,0.5713,0.5714,0.5717,0.5718,0.5723,0.5719,0.5722,0.5723,0.5724,0.5726,0.5704,0.5723,0.5723,0.5723,0.5723,0.5723,0,0.5711,0.5711,0.5714,0.5716,0.5718,0.5715,0.5716,0.5719,0.5723,0.5724,0.5727,0.5733,0.5737,0.5736,0.574,0.5744,0.5743,0.5746,0.5746,0.5747,0.5728,0.5726,0.5747,0.5747,0.5747,0.5747,0.5747,0.5747,0.5719,0.5725,0.5724,0.5731,0.5731,0.5736,0.5738,0.574,0.5741,0.5748,0.5751,0.5751,0.5752,0.5757,0.5762,0.5761,0.5764,0.5768,0.5767,0.575,0.5748,0.5745,0.5744,0.5768,0.5768,0.5786,0.5786,0.5786]}]]